Regional Weather Roundup
Issued by NWS

Home | Current Version | Previous Version | Graphics & Text | Print | Product List | Glossary On
Versions: 1 2 3 4 5 6 7 8 9 10 11 12 13 14 15 16 17 18 19 20 21 22 23 24 25 26 27 28 29 30 31 32 33 34 35 36 37 38 39 40 41 42 43 44 45 46 47 48 49 50
000
ASUS43 KTOP 280059
RWRKS

WEATHER ROUNDUP FOR KANSAS
NATIONAL WEATHER SERVICE GOODLAND KS
800 PM CDT MON APR 27 2015

NOTE:  "FAIR" INDICATES FEW OR NO CLOUDS BELOW 12,000 FEET WITH NO
SIGNIFICANT WEATHER AND/OR OBSTRUCTIONS TO VISIBILITY.

KSZ001>006-013>018-027>032-041>047-280200-
NORTHWEST KANSAS

CITY           SKY/WX    TMP DP  RH WIND       PRES   REMARKS
GOODLAND       MOCLDY    55  33  43 NE12      30.19R
HAYS           PTCLDY    57  32  38 E10       30.14R
HILL CITY      MOCLDY    58  35  42 NE9       30.16R
RUSSELL        CLEAR     58  33  39 NE12      30.12R
$$

KSZ061>065-074>080-084>089-280200-
SOUTHWEST KANSAS

CITY           SKY/WX    TMP DP  RH WIND       PRES   REMARKS
DODGE CITY     CLOUDY    55  34  45 NE16      30.11R
ELKHART          N/A     46  36  68 NE6         N/A
GARDEN CITY    CLOUDY    55  29  36 NE15      30.13R
GREAT BEND     PTCLDY    57  34  41 NE14      30.12R
LIBERAL        CLOUDY    46  39  76 CALM      30.12F
$$

KSZ066>073-081>083-090>101-280200-
SOUTHEAST KANSAS

CITY           SKY/WX    TMP DP  RH WIND       PRES   REMARKS
CHANUTE        CLOUDY    59  38  45 NE5       30.05R
COFFEYVILLE    CLOUDY    58  41  53 NE7       30.02R
HUTCHINSON     MOCLDY    60  36  40 NE8       30.08R
MEDICINE LODGE   N/A     56  40  55 NE8       30.06R
NEWTON         MOCLDY    57  36  44 NE7       30.09S
PARSONS        CLOUDY    60  39  45 NE5       30.05R
WICHITA INTL   CLOUDY    60  35  39 NE13      30.06R
WICHITA JABRA  CLOUDY    58  36  43 NE9       30.06R
WINFIELD       CLOUDY    59  38  45 NE6       30.05R
$$

KSZ007>012-019>026-033>040-048>060-102>105-280200-
NORTHEAST KANSAS

CITY           SKY/WX    TMP DP  RH WIND       PRES   REMARKS
CONCORDIA      PTCLDY    60  34  37 E5        30.12R
EMPORIA        MOCLDY    59  34  39 NE12      30.06R
LAWRENCE       PTCLDY    61  36  39 NE7       30.07R
MANHATTAN      CLEAR     58  38  47 NE6       30.09R
OLATHE IND     PTCLDY    61  35  37 NE9       30.07R
OLATHE EXE     PTCLDY    61  35  37 NE9       30.05R
SALINA         PTCLDY    63  34  33 NE12      30.10R
TOPEKA BILLARD PTCLDY    61  35  37 NE6       30.08R
TOPEKA FORBES  PTCLDY    62  34  35 NE6       30.08R
$$


USA.gov is the U.S. government's official web portal to all federal, state and local government web resources and services.